Regional Weather Roundup
Issued by NWS

Home | Current Version | Previous Version | Graphics & Text | Print | Product List | Glossary On
Versions: 1 2 3 4 5 6 7 8 9 10 11 12 13 14 15 16 17 18 19 20 21 22 23 24 25 26 27 28 29 30 31 32 33 34 35 36 37 38 39 40 41 42 43 44 45 46 47 48 49 50
000
ASUS43 KTOP 200208
RWRKS

WEATHER ROUNDUP FOR KANSAS
NATIONAL WEATHER SERVICE GOODLAND KS
800 PM CST THU JAN 19 2017

NOTE:  "FAIR" INDICATES FEW OR NO CLOUDS BELOW 12,000 FEET WITH NO
SIGNIFICANT WEATHER AND/OR OBSTRUCTIONS TO VISIBILITY.

KSZ001>006-013>018-027>032-041>047-200300-
NORTHWEST KANSAS

CITY           SKY/WX    TMP DP  RH WIND       PRES   REMARKS
GOODLAND       CLOUDY    34  34 100 S8        29.54F FOG
HAYS           FOG       43  42  97 E7        29.58S VSB 1/2
HILL CITY      CLOUDY    41  41 100 SE7       29.57F FOG
RUSSELL        FOG       43  43 100 E6        29.57S VSB 1/2
$$

KSZ061>065-074>080-084>089-200300-
SOUTHWEST KANSAS

CITY           SKY/WX    TMP DP  RH WIND       PRES   REMARKS
DODGE CITY     CLOUDY    41  37  86 CALM      29.57S
ELKHART          N/A     32  24  72 E9          N/A
GARDEN CITY    CLOUDY    40  36  86 S5        29.58R
GREAT BEND     CLOUDY    44  43  96 E6        29.58F FOG
LIBERAL        CLOUDY    41  36  81 NE3       29.58F
PRATT          PTCLDY    39  38  94 CALM      29.58R
$$

KSZ066>073-081>083-090>101-200300-
SOUTHEAST KANSAS

CITY           SKY/WX    TMP DP  RH WIND       PRES   REMARKS
CHANUTE        CLOUDY    49  45  86 CALM      29.63R
COFFEYVILLE    CLOUDY    49  45  86 E3        29.62S
HUTCHINSON     CLOUDY    45  44  97 E8        29.59S FOG
MEDICINE LODGE   N/A     42  39  89 E6        29.58R
NEWTON         CLOUDY    44  43  96 E7        29.61R FOG
PARSONS        CLOUDY    50  45  83 CALM      29.62F
WICHITA INTL   CLOUDY    47  44  90 E7        29.59S
WICHITA JABRA  CLOUDY    45  45 100 E5        29.59S
WICHITA MCCONL CLOUDY    46  45  93 E7        29.59R
WINFIELD       MOCLDY    48  45  89 E5        29.60R
$$

KSZ007>012-019>026-033>040-048>060-102>105-200300-
NORTHEAST KANSAS

CITY           SKY/WX    TMP DP  RH WIND       PRES   REMARKS
CONCORDIA      FOG       42  42 100 E6        29.62S VSB 1/4
EMPORIA        CLOUDY    45  45 100 CALM      29.62S FOG
LAWRENCE       CLOUDY    45  45 100 CALM      29.64S FOG
MANHATTAN      CLOUDY    45  44  97 CALM      29.63F FOG
MARYSVILLE     FOG       43  41  93 CALM      29.63F VSB 1
OLATHE IND     CLOUDY    47  45  93 E3        29.64S
OLATHE EXE     CLOUDY    46  46 100 CALM      29.63F
SALINA         CLOUDY    46  43  89 E8        29.62S
TOPEKA BILLARD LGT RAIN  46  43  89 E5        29.63F FOG
TOPEKA FORBES  CLOUDY    47  46  97 S5        29.63S FOG
$$




USA.gov is the U.S. government's official web portal to all federal, state and local government web resources and services.